{"data":{"norad_id":82875,"intl_designator":"","name":"UNKNOWN","alt_names":[],"object_type":"UNKNOWN","status":"UNKNOWN","operator":null,"country":null,"launch_date":null,"launch_site_code":null,"launch_vehicle":null,"mission":null,"orbit_class":"UNKNOWN","rcs_meters":null,"size_class":null,"mass_kg":null,"dimensions":null,"purposes":[],"wikipedia_slug":null,"has_3d_model":false,"image_url":null,"decayed_at":null,"tle_current":{"epoch":"2026-05-22T05:43:37.700256Z","epoch_age_seconds":310324,"freshness":"STALE","line1":"1 82875U          26142.23863079  .00000209  00000+0  67648-4 0  9998","line2":"2 82875  98.6930 126.8516 0376956 182.4211 177.5150 14.15430515567172","mean_motion":14.15430515,"eccentricity":0.0376956,"inclination_deg":98.693,"raan_deg":126.8516,"arg_perigee_deg":182.4211,"mean_anomaly_deg":177.515,"bstar":6.7648e-5,"rev_number":56717,"period_min":101.73583123577,"perigee_km":568.72401432759,"apogee_km":1112.9719551074,"semimajor_km":7218.9849847175,"source":"CELESTRAK","updated_at":"2026-05-25T13:38:11.196881Z"}}}